Regional Weather Roundup
Issued by NWS

Home | Current Version | Previous Version | Text Only | Print | Product List | Glossary On
Versions: 1 2 3 4 5 6 7 8 9 10 11 12 13 14 15 16 17 18 19 20 21 22 23 24 25 26 27 28
000
ASUS42 KTBW 050316
RWRFL
FLORIDA REGIONAL WEATHER ROUNDUP
NATIONAL WEATHER SERVICE TAMPA BAY RUSKIN FL
1000 PM EST SUN DEC 04 2016

NOTE: "FAIR" INDICATES FEW OR NO CLOUDS BELOW 12,000 FEET WITH NO
SIGNIFICANT WEATHER AND/OR OBSTRUCTIONS TO VISIBILITY.

FLZ001>010-012>015-112-114-115-050400-
PANHANDLE FLORIDA

CITY           SKY/WX    TMP DP  RH WIND       PRES   REMARKS
PENSACOLA      RAIN      67  65  93 N10       29.97R
PENSACOLA NAS  LGT RAIN N/A N/A N/A N6        29.97R
MILTON NAS     LGT RAIN  66  66 100 VRB6      29.98
CRESTVIEW      RAIN      67  65  93 N3        29.98R FOG
DUKE FIELD     LGT RAIN  67  66  95 VRB7      29.96R
VALPARAISO     LGT RAIN  68  66  94 N7        29.96R FOG
MARY ESTHER    RAIN      68  68 100 NE7       29.96
TRI COUNTY     CLOUDY    68  68 100 NE3       29.95S
PANAMA CITY    CLOUDY    74  71  91 S13       29.95S
TYNDALL AFB    CLOUDY    72  70  94 S10       29.95S
APALACHICOLA   MOCLDY    70  70 100 S7        29.98R

STATION/POSITION SKY/WX   TEMP    WIND        PRES    WAVE   SWELL
                          AIR SEA DIR/SP/G            HT/PER HT/PER
                          (F)     (DEG/KT/KT) (MB)    (FT/S) (FT/S)
30.1N   87.6W              68 69   20/ 14/ 16 1014.2F   5/ 8   3/ 8
29.2N   88.2W              69 75  360/ 19/ 25 1014.5
28.8N   86.0W              76 75              1014.5S   5/ 7
PANAMA CITY BEAC           69 68  130/ 10/ 10 1014.3F
TOWER C                    73     190/ 17/ 19 1015.7R
28.5N   84.5W              76 74  180/ 12/ 16 1015.7F   5/ 7   3/ 7

$$
FLZ011-016>038-118-127-128-134-139-239-050400-
NORTH FLORIDA

CITY           SKY/WX    TMP DP  RH WIND       PRES   REMARKS
MARIANNA       CLOUDY    70  67  90 CALM      29.95S
TALLAHASSEE    CLOUDY    70  68  93 S6        29.99S
PERRY          CLOUDY    72  65  78 S7        30.01F
CROSS CITY     CLEAR     66  61  82 CALM      30.02S
LAKE CITY      CLOUDY    68  63  83 S3        30.03R
GAINESVILLE    CLEAR     68  60  75 SW3       30.04R
WILLISTON      CLEAR     68  64  88 CALM      30.04S HAZE
PALATKA        MOCLDY    68  64  88 S8        30.05S
MAYPORT NAS    MOCLDY    71  63  75 S14       30.04R
JACKSONVILLE   MOCLDY    69  64  84 S8        30.02S
JAX NAS        CLOUDY    71  63  75 SE12      30.04R
FERNANDINA BEA FAIR      73  64  73 S13G20    30.02F
ST AUGUSTINE   MOCLDY    71  65  81 S13       30.05S
PALM COAST     FAIR      67  64  93 MISG      30.06R

STATION/POSITION SKY/WX   TEMP    WIND        PRES    WAVE   SWELL
                          AIR SEA DIR/SP/G            HT/PER HT/PER
                          (F)     (DEG/KT/KT) (MB)    (FT/S) (FT/S)
SHELL POINT      NOT AVBL
KEATON BEACH               69     170/ 10/ 11 1015.8F
CEDAR KEY                  67     140/  4/  4 1017.0S
FERNANDINA                 70 67  150/ 11/ 17 1016.6F
30.7N   81.3W                 65                N/A     4/ 5
MAYPORT                    72 67  180/  8/ 14 1017.1R
31.4N   80.9W              68 65  150/ 12/ 14 1016.4F   4/ 5   2/ 8
ST AUGUSTINE               69 68  180/ 11/ 12 1018.3R

$$
FLZ040-043>046-052-053-057-058-063-144-050400-
INTERIOR CENTRAL FLORIDA

CITY           SKY/WX    TMP DP  RH WIND       PRES   REMARKS
OCALA          CLEAR     70  61  73 CALM      30.05R
THE VILLAGES     N/A     70  68  94 CALM      29.95S
LEESBURG       CLEAR     70  63  78 SE3       30.06R
SANFORD        CLEAR     67  63  87 SE5       30.06R
ORLANDO EXEC   CLEAR     68  64  87 SE3       30.07R
ORLANDO INTL   CLEAR     69  64  84 SE5       30.06R
KISSIMMEE      CLEAR     69  66  90 CALM      30.07R
WINTER HAVEN   CLEAR     71  65  81 SE9       30.06R
LAKELAND       CLEAR     72  66  83 SE8       30.05R
BARTOW         FAIR      68  68 100 SE6       30.06R
OKEECHOBEE     PTCLDY    68  64  88 SE3       30.07R

$$
FLZ041-047-054-059-064-141-147-050400-
EAST CENTRAL FLORIDA

CITY           SKY/WX    TMP DP  RH WIND       PRES   REMARKS
DAYTONA BEACH  PTCLDY    69  65  86 SE3       30.06S
DELAND         CLEAR     66  63  88 SE3       30.06S
NEW SMYRNA BEA CLEAR     72  66  83 S12       30.06R
JFK SPACE CTR  CLEAR     70  66  86 SE5       30.05R
CAPE CANAVERAL CLEAR     73  68  85 SE8       30.05R
PATRICK AFB    CLEAR     73  70  90 SE8       30.05R
MELBOURNE      CLEAR     72  69  90 SE7       30.05S
VERO BEACH     CLEAR     74  69  85 SE9       30.06S
FT PIERCE      CLEAR     74  70  87 SE10      30.06R
STUART         PTCLDY    79  72  78 SE7       30.07S

STATION/POSITION SKY/WX   TEMP    WIND        PRES    WAVE   SWELL
                          AIR SEA DIR/SP/G            HT/PER HT/PER
                          (F)     (DEG/KT/KT) (MB)    (FT/S) (FT/S)
TRIDENT PIER               72 73  140/  7/  9 1017.5S
28.4N   80.5W                 71                N/A     3/ 5

$$
FLZ050-056-061-142-242-148-248-149-249-151-251-155-255-
160-260-050400-
WEST CENTRAL FLORIDA

CITY           SKY/WX    TMP DP  RH WIND       PRES   REMARKS
CRYSTAL RIVER  FAIR      64  61  88 CALM      30.05R
INVERNESS      FAIR      64  63  94 CALM      30.05R
BROOKSVILLE      N/A    N/A N/A N/A SW3       30.05R
CLEARWATER AIR FAIR      72  64  78 SE3       30.04R
ST PETE CLEARW PTCLDY    71  65  81 SE6       30.03R
TAMPA INTL     PTCLDY    74  66  76 SE6       30.04R
TAMPA EXEC     CLEAR     73  64  73 SE3       30.05R
PLANT CITY     CLEAR     72  68  88 SE5       30.07R
MACDILL AFB    PTCLDY    71  70  99 S3        30.04R
PETER O KNIGHT PTCLDY    75  70  83 S7        30.04S
ST PETERSBURG  CLEAR     71  67  87 S6        30.02R
SARASOTA       CLEAR     67  64  90 SE6       30.02S
VENICE         FAIR      72  68  88 SE6       30.03F

STATION/POSITION SKY/WX   TEMP    WIND        PRES    WAVE   SWELL
                          AIR SEA DIR/SP/G            HT/PER HT/PER
                          (F)     (DEG/KT/KT) (MB)    (FT/S) (FT/S)
CLEARWATER BEACH           73 69  130/  4/  8 1017.0R
MIDDLE TAMPA BAY           72     160/  8/  9 1017.2R
VENICE                     73 71  100/  5/  6 1016.7S

$$
FLZ066-069-070-075>078-162-262-165-265-050400-
SOUTHWEST FLORIDA AND KEYS

CITY           SKY/WX    TMP DP  RH WIND       PRES   REMARKS
PUNTA GORDA    CLEAR     71  68  90 SE7       30.05S
FT MYERS       CLEAR     75  68  78 SE8       30.03S
SOUTHWEST INTL CLEAR     73  67  81 SE7       30.04S
NAPLES         CLEAR     74  69  85 SE8       30.03F
MARCO ISLAND   CLOUDY    72  68  88 SE6       30.04F
MARATHON       CLEAR     81  73  76 SE8G17    30.04R
KEY WEST NAS   MOCLDY    76  73  91 E16       30.02S
KEY WEST INTL  MOCLDY    79  75  87 E15       30.03R

STATION/POSITION SKY/WX   TEMP    WIND        PRES    WAVE   SWELL
                          AIR SEA DIR/SP/G            HT/PER HT/PER
                          (F)     (DEG/KT/KT) (MB)    (FT/S) (FT/S)
NAPLES                        72              1017.0F
26.0N   85.6W              78 76  120/ 10/ 12 1015.5R   6/ 8   5/ 8
DRY TORTUGAS               79     120/ 15/ 17 1016.2R
SAND KEY                   79     130/ 18/ 21 1016.9S
LONG KEY                   78 78  130/ 13/ 14 1017.5R
MOLASSES REEF              79 79  130/ 18/ 19 1017.8R

$$
FLZ067-068-071>074-168-172>174-050400-
SOUTHEAST FLORIDA

CITY           SKY/WX    TMP DP  RH WIND       PRES   REMARKS
W PALM BEACH   PTCLDY    76  68  76 S14       30.07R
BOCA RATON     MOCLDY    77  70  78 SE9       30.07R
FT LAUDER-EXEC PTCLDY    76  69  79 SE9       30.06S
FT LAUDERDALE  PTCLDY    77  71  82 SE13      30.06S
POMPANO BEACH  MOCLDY    77  70  79 SE15      30.06S
PEMBROKE PINES PTCLDY    76  70  82 SE8       30.07F
OPA LOCKA      PTCLDY    77  70  79 SE9       30.07R
MIAMI          PTCLDY    76  71  85 E9        30.07R
WEST KENDALL   PTCLDY    77  71  82 E8        30.06R
HOMESTEAD      MOCLDY    76  74  91 E7        30.05S

STATION/POSITION SKY/WX   TEMP    WIND        PRES    WAVE   SWELL
                          AIR SEA DIR/SP/G            HT/PER HT/PER
                          (F)     (DEG/KT/KT) (MB)    (FT/S) (FT/S)
PORT EVERGLADES            78     130/  8/ 13 1018.1
VIRGINIA KEY               78 82  120/  9/ 14 1018.5R
LAKE WORTH                 78 78  160/ 19/ 20 1017.6S
FOWEY ROCKS                78 78  120/ 19/ 20 1018.5R

$$





USA.gov is the U.S. government's official web portal to all federal, state and local government web resources and services.